Location: Makanda
(37.6176°N, 89.2090°W)
Time: 16:43:31
(UTC+00:00)

Cosmos 407 Rocket - Visible Passes

Search period start: 12 December 2019 00:00
Search period end: 22 December 2019 00:00
Orbit: 743 x 787 km, 74.0° (Epoch: 11 December)

Date Brightness Start Highest point End Pass type
(mag) Time Alt. Az. Time Alt. Az. Time Alt. Az.
12 Dec 6.2 01:34:31 10° W 01:36:44 13° NW 01:38:57 10° NNW visible
12 Dec 5.0 10:26:39 27° S 10:26:39 27° S 10:29:02 10° S visible
12 Dec 3.9 23:11:25 10° S 23:16:16 43° ESE 23:21:13 10° NNE visible
13 Dec 5.7 00:54:31 10° WSW 00:58:27 21° WNW 01:02:26 10° NNW visible
13 Dec 6.1 09:50:33 13° SSE 09:50:33 13° SSE 09:51:07 10° SSE visible
14 Dec 4.9 00:15:33 10° SW 00:20:18 36° WNW 00:25:09 10° N visible
14 Dec 3.9 23:37:09 10° SSW 23:42:17 65° WNW 23:47:32 10° NNE visible
15 Dec 3.5 22:59:15 10° S 23:04:23 71° ESE 23:09:38 10° NNE visible
16 Dec 6.1 00:44:17 10° W 00:46:58 14° WNW 00:49:39 10° NNW visible
17 Dec 5.6 00:04:34 10° WSW 00:08:43 24° WNW 00:12:55 10° N visible
17 Dec 4.8 23:25:43 10° SW 23:30:35 40° WNW 23:35:34 10° N visible
19 Dec 6.0 23:54:08 10° W 23:57:12 15° WNW 00:00:17 10° NNW visible
20 Dec 5.5 23:14:38 10° WSW 23:18:58 26° WNW 23:23:22 10° N visible
